Regional Weather Roundup
Issued by NWS

Home | Current Version | Previous Version | Graphics & Text | Print | Product List | Glossary On
Versions: 1 2 3 4 5 6 7 8 9 10 11 12 13 14 15 16 17 18 19 20 21 22 23 24 25 26 27 28 29 30 31 32 33 34 35 36 37 38 39 40 41 42 43 44 45 46 47 48 49 50
000
ASUS45 KBOU 161910
RWRCO

WEATHER ROUNDUP FOR COLORADO
NATIONAL WEATHER SERVICE DENVER/BOULDER CO
1200 PM MST TUE JAN 16 2018

NOTE: "FAIR" INDICATES FEW OR NO CLOUDS BELOW 12000 FEET WITH NO
SIGNIFICANT WEATHER AND/OR OBSTRUCTIONS TO VISIBILITY.

COZ001>005-013-030-031-162000-
...NORTHWEST COLORADO...

CITY           SKY/WX    TMP DP  RH WIND       PRES   REMARKS
CRAIG          FAIR      18   2  49 CALM      30.43F
HAYDEN         FAIR      18   4  54 SE3       30.42F
MEEKER         FAIR      26   6  42 CALM      30.40F
RABBIT EARS PA NOT AVBL
STEAMBOAT SPGS FAIR      11   0  62 CALM      30.40F
WALDEN         FAIR      14  -6  41 SW3       30.38F
$$

COZ006>008-011-162000-
...WEST CENTRAL VALLEYS...

CITY           SKY/WX    TMP DP  RH WIND       PRES   REMARKS
GRAND JUNCTION FAIR      36  14  40 S7        30.41F
MONTROSE       FAIR      35  17  47 NW5       30.42F WCI  31
EAGLE          FAIR      22   5  48 CALM      30.46F
RIFLE          FAIR      32  14  47 E7        30.42F WCI  26
DELTA          FAIR      35  17  47 CALM      30.42F
NUCLA          FAIR      34  18  51 CALM      30.41F
$$

COZ017>023-064>068-162000-
...SOUTHWEST COLORADO...

CITY           SKY/WX    TMP DP  RH WIND       PRES   REMARKS
DURANGO        FAIR      35  22  58 N3        30.36F
CORTEZ         FAIR      39  22  50 CALM      30.37F
PAGOSA SPRINGS FAIR      33  18  53 S7        30.35F WCI  27
TELLURIDE      FAIR      36 -11  12 W6        30.35F
WOLF CREEK PAS FAIR      27  -6  24 SW5       30.38F WCI  21
$$

COZ009-010-012-014-032>034-037-058>063-162000-
...CENTRAL COLORADO...

CITY           SKY/WX    TMP DP  RH WIND       PRES   REMARKS
ASPEN          FAIR      25   4  40 NW5       30.35F WCI  19
BUENA VISTA    FAIR      30  -2  25 CALM      30.32F
COPPER MTN     NOT AVBL
BERTHOUD PASS  FAIR      12   0  57 NW14G20   30.28F WCI  -3
COTTONWOOD PAS NOT AVBL
GUNNISON       FAIR      23  13  65 CALM      30.39F
KREMMLING      FAIR      18   0  45 W3        30.46F
LEADVILLE      FAIR      29 -17  13 N3        30.28F
MONARCH PASS   FAIR      21  -9  25 W16       30.41F WCI   7
SALIDA         FAIR      29  11  47 S3        30.41F
SUNLIGHT       FAIR      23 -15  18 SW5       30.38F WCI  17
WILKERSON PASS FAIR      25 -40   4 W5        30.31F WCI  19
$$

COZ069>075-162000-
...SAN LUIS VALLEY/SANGRE DE CRISTO MOUNTAINS...

CITY           SKY/WX    TMP DP  RH WIND       PRES   REMARKS
ALAMOSA        CLOUDY    24  14  65 VRB3      30.39F
DEL NORTE      FAIR      23  13  64 E5        30.39F WCI  17
LA VETA PASS   CLOUDY    19  14  79 SW18        N/A  HAZE    WCI   4
SAGUACHE       CLOUDY    23  14  68 CALM      30.40F
$$

COZ035-036-038>040-162000-
...NORTHERN COLORADO FRONT RANGE...

CITY           SKY/WX    TMP DP  RH WIND       PRES   REMARKS
DENVER INTL AP FAIR      28  -1  28 SE5       30.38F WCI  23
DMNS CITY PARK NOT AVBL
AURORA         MOSUNNY   29  -1  27 E5        30.37F WCI  24
FRONT RANGE AP MOSUNNY   28  -8  20 CALM      30.39F
ERIE MUNI ARPT FAIR      24  11  60 CALM      30.45F
BOULDER MUN AP FAIR      25  10  54 CALM      30.38F
CENTENNIAL     FAIR      29  -1  27 E5        30.36F WCI  24
BROOMFIELD     MOSUNNY   28  12  50 SE9       30.38F WCI  20
FORT COLLINS   FAIR      19   7  59 CALM      30.41F
LONGMONT       FAIR      28  11  49 CALM      30.42F
$$

COZ041-046-047-076>085-087-088-162000-
...PIKES PEAK/PALMER DIVIDE AND SOUTHERN FOOTHILLS...

CITY           SKY/WX    TMP DP  RH WIND       PRES   REMARKS
COLO. SPRINGS  FAIR      27  11  51 VRB3      30.38F
A. F. ACADEMY  FAIR      29  -7  20 S6        30.34F WCI  23
SCHRIEVER AFB  FAIR      26   4  38 SW6       30.38F WCI  20
CHEYENNE MTN   FAIR      24  15  71 SE5       30.29F WCI  18
ELLICOTT         N/A    N/A N/A N/A W6        30.37F
FALCON         FAIR      28   4  35 S3        30.36F
FORT CARSON    FAIR      23  14  69 SE7       30.37F WCI  15
LIMON          FAIR      27  -7  22 SW6       30.41F WCI  20
MONUMENT HILL  FAIR      27   1  33 CALM      30.35F
CANON CITY     SUNNY     25  18  74 CALM      30.41F
WALSENBURG     NOT AVBL
TRINIDAD       FAIR      26  22  84 VRB5      30.41F WCI  20
$$

COZ042>045-048>051-090-091-162000-
...NORTHEAST COLORADO...

CITY           SKY/WX    TMP DP  RH WIND       PRES   REMARKS
GREELEY ARPT   FAIR      22   7  52 CALM      30.44F
AKRON          FAIR      18   4  54 SW9       30.44F WCI   7
BURLINGTON     FAIR      20  -7  30 W6        30.50F WCI  12
WRAY           FAIR      21   1  42 SW3       30.54F
YUMA           FAIR      21   3  45 CALM      30.49F
STERLING       FAIR      21   5  49 SW10      30.47F WCI  10
HOLYOKE        FAIR      21   5  49 S5        30.52F WCI  15
FORT MORGAN    FAIR      22   2  43 SW6       30.46F WCI  14
$$

COZ086-089-092>099-162000-
...SOUTHEAST COLORADO...

CITY           SKY/WX    TMP DP  RH WIND       PRES   REMARKS
PUEBLO         FAIR      23   7  50 CALM      30.46F
LA JUNTA       FAIR      24   5  44 CALM      30.51F
LAMAR          FAIR      23  -1  35 MISG      30.55F
SPRINGFIELD      N/A     25   2  37 VRB3      30.50F
$$



USA.gov is the U.S. government's official web portal to all federal, state and local government web resources and services.